WZZ646 EPKK-EPMO

Flight info

Callsign WZZ646
Flight time 0h 54m
Altitude 25000
Route POBOK M985 KOTEK M866 LOGDA
Aircraft A20N/M-SDE2E3FGHIRWXY/LB1

Departure

Time 2026-05-04 11:53
Airport Kraków John Paul II International Airport (EPKK)

Arrival

Time 2026-05-04 12:47
Airport Warsaw Modlin Airport (EPMO)
Time Latitude Longitude Altitude Speed Heading
2026-05-04 11:46 50.07687 19.80079 789 ft 0 kts 348°
2026-05-04 11:48 50.07732 19.80086 789 ft 17 kts 34°
2026-05-04 11:48 50.07776 19.80319 789 ft 18 kts 56°
2026-05-04 11:49 50.07904 19.80317 789 ft 30 kts 345°
2026-05-04 11:49 50.08010 19.80203 789 ft 7 kts 261°
2026-05-04 11:49 50.08006 19.80171 789 ft 0 kts 260°
2026-05-04 11:50 50.07930 19.79927 788 ft 59 kts 220°
2026-05-04 11:50 50.07571 19.79912 789 ft 25 kts 171°
2026-05-04 11:50 50.07547 19.79920 789 ft 0 kts 167°
2026-05-04 11:50 50.07534 19.79927 789 ft 6 kts 158°
2026-05-04 11:51 50.07512 19.80017 789 ft 13 kts 76°
2026-05-04 11:51 50.07542 19.80198 789 ft 21 kts 77°
2026-05-04 11:51 50.07596 19.80418 789 ft 20 kts 26°
2026-05-04 11:51 50.07735 19.80366 789 ft 23 kts 328°
2026-05-04 11:52 50.07825 19.80337 789 ft 1 kts 356°
2026-05-04 11:52 50.07890 19.80328 789 ft 21 kts 351°
2026-05-04 11:52 50.08013 19.80251 789 ft 10 kts 283°
2026-05-04 11:52 50.08013 19.80205 789 ft 0 kts 255°
2026-05-04 11:53 50.08005 19.80155 789 ft 29 kts 256°
2026-05-04 11:53 50.07899 19.79386 789 ft 114 kts 258°
2026-05-04 11:53 50.07683 19.77840 948 ft 165 kts 257°
2026-05-04 11:53 50.07403 19.75974 1485 ft 190 kts 257°
2026-05-04 11:55 50.10290 19.62240 2788 ft 260 kts 346°
2026-05-04 11:55 50.12130 19.61627 2907 ft 279 kts 348°
2026-05-04 11:56 50.14083 19.61791 3533 ft 288 kts 17°
2026-05-04 11:56 50.15826 19.63278 4334 ft 287 kts 37°
2026-05-04 11:56 50.17347 19.65294 4749 ft 289 kts 42°
2026-05-04 11:56 50.18824 19.67452 4931 ft 291 kts 43°
2026-05-04 11:57 50.20311 19.69609 4989 ft 289 kts 43°
2026-05-04 11:57 50.21785 19.71706 5001 ft 285 kts 41°
2026-05-04 11:57 50.23276 19.73769 5009 ft 286 kts 41°
2026-05-04 11:57 50.24790 19.75828 5159 ft 291 kts 40°
2026-05-04 11:58 50.26308 19.77870 5775 ft 294 kts 40°
2026-05-04 11:58 50.27847 19.79977 6784 ft 294 kts 41°
2026-05-04 11:58 50.29404 19.82114 7419 ft 300 kts 41°
2026-05-04 11:58 50.30978 19.84276 7750 ft 301 kts 41°
2026-05-04 11:59 50.32620 19.86296 8022 ft 301 kts 31°
2026-05-04 11:59 50.34448 19.87885 8295 ft 300 kts 26°
2026-05-04 11:59 50.36334 19.89361 8578 ft 304 kts 25°
2026-05-04 11:59 50.38226 19.90853 8850 ft 304 kts 26°
2026-05-04 12:00 50.40084 19.92373 9123 ft 305 kts 27°
2026-05-04 12:00 50.41966 19.93955 9417 ft 309 kts 27°
2026-05-04 12:00 50.43859 19.95567 9714 ft 309 kts 28°
2026-05-04 12:00 50.45747 19.97186 9984 ft 310 kts 28°
2026-05-04 12:01 50.47679 19.98842 10244 ft 328 kts 28°
2026-05-04 12:01 50.49765 20.00628 10529 ft 352 kts 28°
2026-05-04 12:02 50.63161 20.12154 14311 ft 376 kts 27°
2026-05-04 12:03 50.65460 20.14141 15095 ft 378 kts 27°
2026-05-04 12:03 50.67778 20.16145 15889 ft 380 kts 27°
2026-05-04 12:03 50.70081 20.18137 16622 ft 384 kts 27°
2026-05-04 12:03 50.72434 20.20175 17359 ft 387 kts 27°
2026-05-04 12:04 50.74805 20.22230 18097 ft 390 kts 27°
2026-05-04 12:04 50.77198 20.24305 18744 ft 393 kts 27°
2026-05-04 12:04 50.79608 20.26399 19339 ft 397 kts 27°
2026-05-04 12:04 50.82046 20.28519 19973 ft 400 kts 27°
2026-05-04 12:05 50.84500 20.30657 20573 ft 404 kts 27°
2026-05-04 12:05 50.86975 20.32816 21180 ft 408 kts 27°
2026-05-04 12:05 50.89444 20.34971 21753 ft 412 kts 27°
2026-05-04 12:05 50.91966 20.37176 22351 ft 415 kts 27°
2026-05-04 12:06 50.94510 20.39403 22920 ft 419 kts 27°
2026-05-04 12:06 50.97072 20.41648 23487 ft 423 kts 27°
2026-05-04 12:06 50.99660 20.43917 23988 ft 425 kts 27°
2026-05-04 12:06 51.02263 20.46203 24493 ft 428 kts 27°
2026-05-04 12:07 51.04878 20.48505 24841 ft 431 kts 27°
2026-05-04 12:07 51.07504 20.50819 24974 ft 432 kts 27°
2026-05-04 12:07 51.10125 20.53131 25004 ft 431 kts 27°
2026-05-04 12:07 51.12747 20.55448 24928 ft 430 kts 27°
2026-05-04 12:08 51.15334 20.57737 24474 ft 431 kts 27°
2026-05-04 12:08 51.17976 20.60078 23687 ft 437 kts 27°
2026-05-04 12:08 51.20656 20.62455 22637 ft 443 kts 27°
2026-05-04 12:08 51.23346 20.64844 21937 ft 440 kts 27°
2026-05-04 12:09 51.25980 20.67190 21703 ft 425 kts 27°
2026-05-04 12:09 51.28438 20.69664 21525 ft 412 kts 35°
2026-05-04 12:09 51.30623 20.72562 21083 ft 406 kts 42°
2026-05-04 12:09 51.32680 20.75629 20536 ft 403 kts 41°
2026-05-04 12:10 51.34735 20.78656 20092 ft 397 kts 41°
2026-05-04 12:10 51.36725 20.81581 19823 ft 391 kts 41°
2026-05-04 12:10 51.38722 20.84520 19558 ft 392 kts 41°
2026-05-04 12:10 51.40736 20.87491 19261 ft 392 kts 41°
2026-05-04 12:11 51.42744 20.90459 18983 ft 391 kts 41°
2026-05-04 12:11 51.44739 20.93413 18705 ft 389 kts 41°
2026-05-04 12:11 51.46728 20.96361 18427 ft 388 kts 41°
2026-05-04 12:11 51.48706 20.99299 18142 ft 387 kts 41°
2026-05-04 12:12 51.50655 21.02198 18004 ft 384 kts 41°
2026-05-04 12:12 51.52642 21.05159 17989 ft 387 kts 41°
2026-05-04 12:12 51.54620 21.08104 17996 ft 387 kts 41°
2026-05-04 12:12 51.56567 21.11005 17981 ft 387 kts 41°
2026-05-04 12:13 51.58539 21.13954 17984 ft 387 kts 41°
2026-05-04 12:14 51.72177 21.34438 15976 ft 374 kts 41°
2026-05-04 12:15 51.74089 21.37320 15973 ft 377 kts 41°
2026-05-04 12:15 51.75382 21.39275 15968 ft 376 kts 41°
2026-05-04 12:15 51.77265 21.42119 15971 ft 376 kts 41°
2026-05-04 12:15 51.79181 21.45018 15973 ft 376 kts 41°
2026-05-04 12:16 51.81089 21.47912 15970 ft 376 kts 41°
2026-05-04 12:16 51.82996 21.50808 15967 ft 376 kts 41°
2026-05-04 12:16 51.84904 21.53707 15973 ft 376 kts 41°
2026-05-04 12:16 51.86815 21.56613 15969 ft 376 kts 41°
2026-05-04 12:17 51.88720 21.59514 15954 ft 375 kts 41°
2026-05-04 12:17 51.90782 21.62069 15647 ft 372 kts 25°
2026-05-04 12:17 51.93202 21.63389 15181 ft 364 kts
2026-05-04 12:17 51.95627 21.63274 15014 ft 350 kts 346°
2026-05-04 12:18 51.98027 21.62426 14970 ft 353 kts 342°
2026-05-04 12:18 52.00412 21.61469 14968 ft 353 kts 342°
2026-05-04 12:18 52.02818 21.60588 14967 ft 353 kts 344°
2026-05-04 12:18 52.05234 21.59797 14966 ft 353 kts 345°
2026-05-04 12:19 52.07653 21.59063 14947 ft 353 kts 346°
2026-05-04 12:19 52.10076 21.58357 14670 ft 354 kts 346°
2026-05-04 12:19 52.12475 21.57670 14213 ft 355 kts 346°
2026-05-04 12:19 52.14937 21.56964 13721 ft 354 kts 346°
2026-05-04 12:20 52.17322 21.56279 13238 ft 351 kts 346°
2026-05-04 12:20 52.19709 21.55511 12784 ft 346 kts 341°
2026-05-04 12:20 52.21942 21.54226 12445 ft 335 kts 332°
2026-05-04 12:20 52.24033 21.52721 12303 ft 322 kts 332°
2026-05-04 12:21 52.26052 21.51306 12200 ft 310 kts 333°
2026-05-04 12:21 52.28008 21.49946 12019 ft 301 kts 333°
2026-05-04 12:21 52.29904 21.48630 11959 ft 292 kts 332°
2026-05-04 12:21 52.31791 21.47303 11963 ft 297 kts 332°
2026-05-04 12:22 52.33690 21.45957 11869 ft 297 kts 332°
2026-05-04 12:22 52.35593 21.44613 11528 ft 299 kts 332°
2026-05-04 12:22 52.37504 21.43268 11189 ft 298 kts 333°
2026-05-04 12:22 52.39397 21.41927 10866 ft 295 kts 333°
2026-05-04 12:23 52.41256 21.40614 10531 ft 294 kts 333°
2026-05-04 12:23 52.43153 21.39273 10190 ft 292 kts 333°
2026-05-04 12:23 52.44985 21.37971 9909 ft 288 kts 333°
2026-05-04 12:23 52.46783 21.36701 9799 ft 276 kts 333°
2026-05-04 12:24 52.48511 21.35478 9706 ft 265 kts 333°
2026-05-04 12:24 52.50038 21.33981 9535 ft 249 kts 311°
2026-05-04 12:24 52.50920 21.31621 9186 ft 242 kts 283°
2026-05-04 12:24 52.50969 21.28916 8994 ft 236 kts 260°
2026-05-04 12:25 52.50698 21.26276 8762 ft 234 kts 261°
2026-05-04 12:25 52.50448 21.23620 8405 ft 237 kts 262°
2026-05-04 12:25 52.50206 21.20927 8113 ft 238 kts 262°
2026-05-04 12:25 52.49974 21.18232 7667 ft 243 kts 261°
2026-05-04 12:26 52.49753 21.15467 7055 ft 246 kts 262°
2026-05-04 12:26 52.49536 21.12644 6209 ft 254 kts 263°
2026-05-04 12:26 52.49373 21.09814 5732 ft 244 kts 264°
2026-05-04 12:26 52.49167 21.06954 4499 ft 262 kts 260°
2026-05-04 12:27 52.48839 21.04059 4121 ft 241 kts 257°
2026-05-04 12:27 52.48483 21.01461 3874 ft 228 kts 257°
2026-05-04 12:27 52.48203 20.98946 3729 ft 223 kts 260°
2026-05-04 12:27 52.47992 20.96438 3525 ft 221 kts 261°
2026-05-04 12:28 52.47785 20.93995 3261 ft 218 kts 261°
2026-05-04 12:28 52.47571 20.91563 3097 ft 209 kts 261°
2026-05-04 12:28 52.47385 20.89331 3061 ft 190 kts 261°
2026-05-04 12:28 52.47199 20.87270 2965 ft 174 kts 260°
2026-05-04 12:29 52.47021 20.85419 3002 ft 154 kts 259°
2026-05-04 12:29 52.46859 20.83741 3007 ft 143 kts 260°
2026-05-04 12:29 52.46715 20.82170 2987 ft 132 kts 259°
2026-05-04 12:29 52.46564 20.80622 2635 ft 145 kts 260°
2026-05-04 12:30 52.46409 20.78980 2323 ft 143 kts 260°
2026-05-04 12:30 52.46292 20.77563 2539 ft 109 kts 259°
2026-05-04 12:30 52.46157 20.76200 2460 ft 134 kts 255°
2026-05-04 12:30 52.45994 20.74680 2163 ft 136 kts 259°
2026-05-04 12:31 52.45871 20.73086 1714 ft 144 kts 263°
2026-05-04 12:31 52.45711 20.71443 1246 ft 144 kts 256°
2026-05-04 12:31 52.45547 20.69871 884 ft 135 kts 257°
2026-05-04 12:31 52.45413 20.68412 627 ft 126 kts 261°
2026-05-04 12:32 52.45305 20.67007 395 ft 121 kts 253°
2026-05-04 12:32 52.45026 20.64160 413 ft 164 kts 260°
2026-05-04 12:32 52.44843 20.62185 964 ft 184 kts 260°
2026-05-04 12:33 52.44651 20.60085 1720 ft 191 kts 261°
2026-05-04 12:33 52.44507 20.57947 2633 ft 186 kts 263°
2026-05-04 12:33 52.44355 20.55672 2899 ft 210 kts 260°
2026-05-04 12:33 52.44094 20.53297 2997 ft 215 kts 256°
2026-05-04 12:34 52.43759 20.50911 2982 ft 214 kts 256°
2026-05-04 12:34 52.43718 20.48523 2990 ft 213 kts 283°
2026-05-04 12:34 52.44501 20.46456 2975 ft 220 kts 316°
2026-05-04 12:34 52.45898 20.45388 2979 ft 229 kts 345°
2026-05-04 12:35 52.47472 20.44934 2972 ft 232 kts 347°
2026-05-04 12:35 52.49059 20.44469 2988 ft 233 kts 347°
2026-05-04 12:35 52.50656 20.44007 2979 ft 233 kts 347°
2026-05-04 12:35 52.52268 20.43804 3006 ft 234 kts
2026-05-04 12:36 52.53741 20.44828 3002 ft 228 kts 39°
2026-05-04 12:36 52.54615 20.46951 3100 ft 232 kts 68°
2026-05-04 12:36 52.55028 20.49678 2698 ft 250 kts 79°
2026-05-04 12:36 52.55323 20.52394 2888 ft 229 kts 82°
2026-05-04 12:37 52.55537 20.54940 2989 ft 227 kts 84°
2026-05-04 12:37 52.55713 20.57575 2982 ft 235 kts 84°
2026-05-04 12:37 52.55889 20.60293 2974 ft 242 kts 85°
2026-05-04 12:37 52.56077 20.63032 2970 ft 239 kts 85°
2026-05-04 12:38 52.56263 20.65748 2970 ft 241 kts 85°
2026-05-04 12:38 52.56445 20.68442 2985 ft 236 kts 84°
2026-05-04 12:38 52.56617 20.71146 2977 ft 238 kts 85°
2026-05-04 12:38 52.56813 20.73873 2980 ft 241 kts 84°
2026-05-04 12:39 52.56988 20.76588 2968 ft 238 kts 84°
2026-05-04 12:39 52.57169 20.79275 2976 ft 236 kts 85°
2026-05-04 12:39 52.57344 20.81935 2968 ft 237 kts 85°
2026-05-04 12:39 52.57512 20.84610 2980 ft 235 kts 85°
2026-05-04 12:40 52.57688 20.87310 2970 ft 239 kts 85°
2026-05-04 12:40 52.57859 20.90029 2975 ft 239 kts 85°
2026-05-04 12:40 52.58033 20.92740 2970 ft 237 kts 85°
2026-05-04 12:40 52.58203 20.95441 2977 ft 236 kts 87°
2026-05-04 12:41 52.57958 20.98048 2976 ft 230 kts 119°
2026-05-04 12:41 52.56966 21.00024 2988 ft 225 kts 151°
2026-05-04 12:41 52.55507 21.00940 2985 ft 228 kts 169°
2026-05-04 12:41 52.53972 21.01542 2953 ft 222 kts 170°
2026-05-04 12:42 52.52479 21.02153 2947 ft 223 kts 171°
2026-05-04 12:42 52.50961 21.02084 2977 ft 219 kts 202°
2026-05-04 12:42 52.49753 21.00691 2978 ft 213 kts 235°
2026-05-04 12:42 52.49042 20.98596 2935 ft 210 kts 240°
2026-05-04 12:43 52.48300 20.96515 3015 ft 213 kts 242°
2026-05-04 12:43 52.47689 20.94295 2864 ft 213 kts 251°
2026-05-04 12:43 52.47566 20.91928 2799 ft 210 kts 282°
2026-05-04 12:43 52.47646 20.89587 3028 ft 211 kts 262°
2026-05-04 12:44 52.47414 20.87196 2968 ft 216 kts 259°
2026-05-04 12:44 52.47147 20.84829 2983 ft 208 kts 259°
2026-05-04 12:44 52.46861 20.82497 2984 ft 201 kts 258°
2026-05-04 12:44 52.46571 20.80459 2851 ft 170 kts 257°
2026-05-04 12:45 52.46370 20.78711 2803 ft 140 kts 260°
2026-05-04 12:45 52.46230 20.77181 2603 ft 135 kts 259°
2026-05-04 12:45 52.46112 20.75656 2253 ft 139 kts 262°
2026-05-04 12:45 52.45976 20.74053 1865 ft 143 kts 259°
2026-05-04 12:46 52.45828 20.72432 1436 ft 145 kts 260°
2026-05-04 12:46 52.45671 20.70844 1084 ft 136 kts 257°
2026-05-04 12:46 52.45514 20.69292 697 ft 130 kts 258°
2026-05-04 12:46 52.45382 20.67898 482 ft 121 kts 258°
2026-05-04 12:47 52.45255 20.66591 356 ft 120 kts 258°
2026-05-04 12:47 52.45155 20.65563 354 ft 60 kts 263°
2026-05-04 12:47 52.45101 20.64920 349 ft 55 kts 260°
2026-05-04 12:47 52.45053 20.64473 349 ft 8 kts 256°
2026-05-04 12:48 52.44998 20.64385 352 ft 16 kts 182°
2026-05-04 12:48 52.44889 20.64381 352 ft 0 kts 181°
2026-05-04 12:50 52.44849 20.64379 353 ft 14 kts 181°
2026-05-04 12:50 52.44720 20.64404 356 ft 20 kts 135°
2026-05-04 12:50 52.44722 20.64558 358 ft 21 kts 81°
2026-05-04 12:50 52.44754 20.64891 357 ft 25 kts 80°
2026-05-04 12:51 52.44746 20.65044 359 ft 1 kts 161°
2026-05-04 12:51 52.44723 20.65020 350 ft 6 kts 211°
2026-05-04 12:51 52.44720 20.65018 357 ft 0 kts 205°